This demonstration page uses our WeatherBlox Daily Observations layout. Learn more.

Left ArrowRight Arrow

39.08367, -84.50855

Hourly Observations for December 6, 2015

Temp ( °F °C ) Dew Point ( °F °C ) Humidity (%) Winds ( mph kmh ) Pressure ( in mb ) Visibility ( mi km ) Precip ( " mm )
12:53 am 00:53 Mostly Cloudy with Freezing Fog 28 -2.2 28 -2.2 100 100 Calm 30.58 1036 5 8 0.00 0.00
1:53 am 01:53 Mostly Cloudy with Freezing Fog 28 -2.2 28 -2.2 100 100 Calm 30.56 1035 5 8 0.00 0.00
2:53 am 02:53 Mostly Cloudy with Freezing Fog 28 -2.2 28 -2.2 100 100 Calm 30.55 1034 0 0 0.00 0.00
3:53 am 03:53 Mostly Cloudy with Freezing Fog 28 -2.2 28 -2.2 100 100 Calm 30.53 1034 0 0 0.00 0.00
4:53 am 04:53 Mostly Cloudy with Freezing Fog 28 -2.2 27 -2.8 96 96 Calm 30.52 1034 5 8 0.00 0.00
5:53 am 05:53 Mostly Cloudy with Freezing Fog 28 -2.2 27 -2.8 96 96 Calm 30.52 1034 0 0 0.00 0.00
6:53 am 06:53 Mostly Cloudy with Freezing Fog 27 -2.8 26 -3.3 96 96 Calm 30.53 1034 0 0 0.00 0.00
7:43 am 07:43 Mostly Cloudy with Freezing Fog 27 -2.8 26 -3.3 96 96 NE 3 6 30.53 1034 1 1 0.00 0.00
7:53 am 07:53 Mostly Cloudy with Freezing Fog 27 -2.8 26 -3.3 96 96 ENE 3 6 30.51 1033 0 0 0.00 0.00
8:53 am 08:53 Mostly Cloudy with Freezing Fog 28 -2.2 27 -2.8 96 96 Calm 30.50 1033 0 0 0.00 0.00
9:13 am 09:13 Mostly Cloudy with Freezing Fog 29 -1.7 28 -2.2 96 96 Calm 30.50 1033 0 0 0.00 0.00
9:24 am 09:24 Mostly Cloudy with Freezing Fog 30 -1 28 -2 93 93 Calm 30.50 1033 0 0 0.00 0.00
9:53 am 09:53 Mostly Cloudy with Freezing Fog 31 -0.6 30 -1.1 96 96 Calm 30.49 1033 5 8 0.00 0.00
10:17 am 10:17 Partly Cloudy with Patchy Fog 32 0 32 0 100 100 Calm 30.50 1033 2 3 0.00 0.00
10:48 am 10:48 Sunny with Mist and Fog 36 2 36 2 100 100 Calm 30.50 1033 5 8 0.00 0.00
10:53 am 10:53 Sunny with Mist and Fog 35 1.7 35 1.7 100 100 Calm 30.48 1032 5 8 0.00 0.00
11:53 am 11:53 Sunny 41 5 37 2.8 86 86 Calm 30.45 1031 10 16 0.00 0.00
12:53 pm 12:53 Sunny 47 8.3 38 3.3 71 71 Calm 30.41 1030 10 16 0.00 0.00
1:53 pm 13:53 Sunny 53 11.7 36 2.2 52 52 Calm 30.37 1029 10 16 0.00 0.00
2:53 pm 14:53 Sunny 54 12.2 32 0 43 43 SSW 6 9 30.34 1027 10 16 0.00 0.00
3:53 pm 15:53 Sunny 54 12.2 31 -0.6 42 42 SSE 9 15 30.29 1026 10 16 0.00 0.00
4:53 pm 16:53 Sunny 50 10 31 -0.6 48 48 SSW 9 15 30.30 1026 10 16 0.00 0.00
5:53 pm 17:53 Clear 47 8.3 30 -1.1 52 52 SW 3 6 30.30 1026 10 16 0.00 0.00
6:53 pm 18:53 Clear 39 3.9 33 0.6 79 79 Calm 30.29 1026 10 16 0.00 0.00
7:53 pm 19:53 Mostly Clear 37 2.8 32 0 82 82 Calm 30.29 1026 10 16 0.00 0.00
8:53 pm 20:53 Clear 36 2.2 32 0 86 86 Calm 30.28 1025 10 16 0.00 0.00
9:53 pm 21:53 Clear 34 1.1 31 -0.6 89 89 Calm 30.28 1025 10 16 0.00 0.00
10:53 pm 22:53 Cloudy 34 1.1 32 0 92 92 Calm 30.27 1025 10 16 0.00 0.00
11:53 pm 23:53 Cloudy 37 2.8 34 1.1 89 89 Calm 30.27 1025 10 16 0.00 0.00

Powered by AerisWeather